Find Starlink 30145

NORAD ID: 57496 Int'l Des: 2023-113 Owner: SPXS Country: US Constellation: starlink operational
LEOCIRCULAR

Current View

Loading 3D Globe...

About Starlink 30145

Starlink 30145 (NORAD 57496) is a starlink constellation satellite (v2 mini) launched Aug 7, 2023 by SPXS of US. It operates in LEO, CIRCULAR orbit with a mass of 730.00 kg.

About Starlink 30145

Description loading...

Upcoming Passes

Passes for default location (London). Set your location on the main map for personalized predictions.

Altitude History

Loading altitude history...

Two-Line Element Set

1 57496U 23113B 26175.19515205 -.00000147 00000-0 41638-5 0 9990
2 57496 43.0038 134.5978 0001056 262.6866 97.3865 15.27576008159853
Epoch: Jun 24, 2026 • Age: 25 hours

Current Status

Altitude 482.3 km
Velocity 7.63 km/s
Sub-Earth Point 7.51°N, 135.77°E
Launch Date Aug 7, 2023
Age 2.8 years
Type internet

Technical Details

Classification Payload
Mass 730.00 kg
Dry Mass 700.00 kg
Total Mass 730.00 kg
Length 0.30 m
Diameter 4.10 m
Span 29.00 m
Shape Box + pan
Manufacturer SPXS
Bus Type Starlink V2M
Phase Status In Orbit
Owner/State SPXS/US

Most Searched